Regional Weather Roundup
Issued by NWS

Home | Current Version | Previous Version | Text Only | Print | Product List | Glossary On
Versions: 1 2 3 4 5 6 7 8 9 10 11 12 13 14 15 16 17 18 19 20 21 22 23 24 25 26 27 28 29 30 31 32 33 34 35 36 37 38 39 40 41 42 43 44 45 46 47 48 49 50
888
ASCA42 TJSJ 110710
RWRPR
PUERTO RICO/U.S. VIRGIN ISLANDS HOURLY WEATHER ROUNDUP
NATIONAL WEATHER SERVICE SAN JUAN PR
300 AM AST THU FEB 11 2016

PRZ001-004-110800-
PUERTO RICO

CITY           SKY/WX    TMP DP  RH WIND       PRES   REMARKS
SAN JUAN LMM   PTCLDY    73  70  88 CALM      30.06F
CEIBA          CLEAR     73  70  88 CALM      30.08F
$$

PRZ006-007-110800-
U.S. VIRGIN ISLANDS

CITY           SKY/WX    TMP DP  RH WIND       PRES   REMARKS
CHARLOTTE AMA  CLEAR     75  70  83 NE3       30.06F
CHRISTIANSTED  MOCLDY    75  68  78 NE8       30.06F
$$

HOURLY WEATHER ROUNDUP FOR THE NEWS MEDIA

CITY           SKY/WX    TMP DP  RH WIND       PRES   REMARKS
ORLANDO        PTCLDY    43  32  65 CALM      30.24F
NEW YORK       CLOUDY    29  17  61 W20G28    29.77S WCI  16
NEWARK         FLURRIES  27  18  69 W20G25    29.78R WCI  13
CHICAGO        CLOUDY    12   0  58 NW10      30.17R WCI  -1
HARTFORD       CLEAR     25  19  78 W7        29.66S WCI  17
BOSTON         CLEAR     30  19  63 W12       29.65S WCI  20
DALLAS         PTCLDY    57  36  45 SW8       30.03S
PHILADELPHIA   MOCLDY    26  10  50 W15G23    29.88R WCI  14
LOS ANGELES    CLEAR     63  40  42 E3        30.10S
WASHINGTON DC  MOCLDY    22   5  48 W14G29    29.97S WCI   9



USA.gov is the U.S. government's official web portal to all federal, state and local government web resources and services.